EW8360 Weather Reports


Display with metric or nautical units.
time (UTC)temp
F
wind
direction
speed
MPH
gust
MPH
rain 1hr
in
rain 24hr
in
rain mn
in
humidity
%
barometer
mb
20260903060430 67 301 0.0 2.0 0.00 0.00 0.00 83 1013.7
20260903055930 67 293 1.0 3.0 0.00 0.00 0.00 83 1013.8
20260903055430 67 270 2.0 3.0 0.00 0.00 0.00 83 1013.8
20260903054646 67 294 2.0 2.0 0.00 0.00 0.00 83 1013.9
20260903053930 67 290 0.0 2.0 0.00 0.00 0.00 83 1013.9
20260903053656 67 268 1.0 3.0 0.00 0.00 0.00 83 1014.0
20260903052928 67 295 3.0 3.0 0.00 0.00 0.00 83 1014.0
20260903052645 67 278 2.0 3.0 0.00 0.00 0.00 83 1013.9
20260903051929 67 268 1.0 3.0 0.00 0.00 0.00 83 1014.0
20260903051429 67 275 1.0 2.0 0.00 0.00 0.00 83 1013.9
20260903050927 67 270 1.0 2.0 0.00 0.00 0.00 83 1014.0
20260903050427 67 273 2.0 2.0 0.00 0.00 0.00 84 1014.1
20260903050156 67 252 0.0 2.0 0.00 0.00 0.00 84 1014.0
20260903045429 67 265 0.0 2.0 0.00 0.00 0.00 83 1014.1
20260903044928 67 245 2.0 2.0 0.00 0.00 0.00 83 1014.0
20260903044653 68 250 0.0 2.0 0.00 0.00 0.00 83 1014.0
20260903044148 68 245 1.0 2.0 0.00 0.00 0.00 83 1014.0
20260903043428 68 243 1.0 2.0 0.00 0.00 0.00 82 1013.9
20260903042927 68 260 0.0 2.0 0.00 0.00 0.00 82 1013.9
20260903042427 68 269 0.0 5.0 0.00 0.00 0.00 82 1013.9
20260903041928 68 264 0.0 5.0 0.00 0.00 0.00 82 1013.9
20260903041648 68 302 3.0 5.0 0.00 0.00 0.00 82 1013.9
20260903040927 68 267 0.0 6.0 0.00 0.00 0.00 82 1013.9
20260903040427 68 321 4.0 6.0 0.00 0.00 0.00 82 1013.8
20260903035928 68 284 2.0 5.0 0.00 0.00 0.00 82 1013.7
20260903035653 68 299 4.0 7.0 0.00 0.00 0.00 82 1013.7
20260903034926 68 284 4.0 8.0 0.00 0.00 0.00 82 1013.6
20260903034647 68 294 5.0 8.0 0.00 0.00 0.00 82 1013.6
20260903033925 67 298 5.0 9.0 0.00 0.00 0.00 82 1013.5
20260903033428 67 16 3.0 9.0 0.00 0.00 0.00 82 1013.5
20260903032929 67 344 6.0 8.0 0.00 0.00 0.00 82 1013.4
20260903032425 67 324 5.0 8.0 0.00 0.00 0.00 82 1013.4
20260903031925 68 312 5.0 8.0 0.00 0.00 0.00 82 1013.5
20260903031427 68 293 4.0 8.0 0.00 0.00 0.00 83 1013.3
20260903030926 68 321 4.0 8.0 0.00 0.00 0.00 82 1013.2
20260903030425 68 331 4.0 8.0 0.00 0.00 0.00 83 1013.3
20260903025926 68 275 5.0 8.0 0.00 0.00 0.00 83 1013.2
20260903025652 68 301 3.0 9.0 0.00 0.00 0.00 83 1013.2
20260903024926 68 299 5.0 9.0 0.00 0.00 0.00 82 1013.2
20260903024424 68 348 5.0 9.0 0.00 0.00 0.00 82 1013.1
20260903023925 68 337 6.0 13.0 0.00 0.00 0.00 83 1013.0
20260903023426 68 324 7.0 13.0 0.00 0.00 0.00 82 1013.0
20260903022425 68 286 4.0 9.0 0.00 0.00 0.00 83 1013.0
20260903021924 69 315 4.0 7.0 0.00 0.00 0.00 83 1013.1
20260903021427 69 278 6.0 8.0 0.00 0.00 0.00 83 1013.1
20260903020925 69 298 3.0 8.0 0.00 0.00 0.00 83 1013.2
20260903020423 69 289 3.0 8.0 0.00 0.00 0.00 82 1013.1
20260903015924 69 267 3.0 8.0 0.00 0.00 0.00 82 1013.1
20260903015424 70 270 4.0 8.0 0.00 0.00 0.00 81 1013.1
20260903014925 70 328 3.0 8.0 0.00 0.00 0.00 80 1013.1
20260903014424 70 271 3.0 8.0 0.00 0.00 0.00 79 1013.0
20260903014141 70 305 2.0 8.0 0.00 0.00 0.00 78 1013.0
20260903013423 71 257 2.0 8.0 0.00 0.00 0.00 77 1013.0
20260903012924 71 321 2.0 9.0 0.00 0.00 0.00 77 1012.9
20260903012423 71 6 4.0 10.0 0.00 0.00 0.00 76 1013.0
20260903011923 71 264 3.0 10.0 0.00 0.00 0.00 76 1012.9
20260903011422 72 291 1.0 7.0 0.00 0.00 0.00 74 1012.8
20260903010924 72 349 5.0 7.0 0.00 0.00 0.00 73 1012.9
20260903010648 72 330 3.0 8.0 0.00 0.00 0.00 72 1012.8
20260903005922 72 329 4.0 8.0 0.00 0.00 0.00 72 1012.9
20260903005422 72 279 2.0 9.0 0.00 0.00 0.00 72 1012.9
20260903004923 72 294 3.0 9.0 0.00 0.00 0.00 72 1012.7
20260903004423 72 330 3.0 9.0 0.00 0.00 0.00 71 1012.8
20260903003922 73 264 2.0 8.0 0.00 0.00 0.00 71 1012.9
20260903003422 73 286 6.0 9.0 0.00 0.00 0.00 71 1012.9
20260903002923 73 318 7.0 9.0 0.00 0.00 0.00 72 1012.8
20260903002423 73 304 4.0 8.0 0.00 0.00 0.00 70 1012.9
20260903001922 73 284 5.0 8.0 0.00 0.00 0.00 69 1012.9
20260903001646 73 224 5.0 9.0 0.00 0.00 0.00 69 1012.9
20260903001148 73 310 3.0 9.0 0.00 0.00 0.00 70 1012.9
20260903000424 73 320 4.0 8.0 0.00 0.00 0.00 69 1013.0
20260902235921 73 262 4.0 8.0 0.00 0.00 0.00 67 1012.9
20260902235422 73 331 5.0 10.0 0.00 0.00 0.00 67 1013.0
20260902234922 73 284 1.0 12.0 0.00 0.00 0.00 69 1013.0
20260902234423 73 269 2.0 12.0 0.00 0.00 0.00 70 1013.0
20260902233920 73 345 3.0 10.0 0.00 0.00 0.00 69 1013.1
20260902233421 73 297 5.0 10.0 0.00 0.00 0.00 69 1013.1
20260902232921 73 350 5.0 9.0 0.00 0.00 0.00 68 1013.2
20260902232422 73 344 6.0 9.0 0.00 0.00 0.00 69 1013.1
20260902231920 73 283 5.0 9.0 0.00 0.00 0.00 68 1013.2
20260902231420 73 287 5.0 9.0 0.00 0.00 0.00 67 1013.3
20260902231144 72 344 5.0 8.0 0.00 0.00 0.00 68 1013.3
20260902230641 72 303 3.0 13.0 0.00 0.00 0.00 67 1013.3
20260902225920 72 280 2.0 13.0 0.00 0.00 0.00 68 1013.3
20260902225639 73 10 6.0 13.0 0.00 0.00 0.00 69 1013.4
20260902224921 73 289 9.0 14.0 0.00 0.00 0.00 71 1013.4
20260902224421 73 330 9.0 14.0 0.00 0.00 0.00 72 1013.3
20260902223919 73 328 5.0 12.0 0.00 0.00 0.00 70 1013.4
20260902223419 73 321 4.0 12.0 0.00 0.00 0.00 71 1013.5
20260902223139 73 267 4.0 10.0 0.00 0.00 0.00 69 1013.5
20260902222645 73 304 6.0 14.0 0.00 0.00 0.00 69 1013.6
20260902221919 73 336 6.0 14.0 0.00 0.00 0.00 70 1013.6
20260902221418 73 341 6.0 12.0 0.00 0.00 0.00 70 1013.7
20260902220918 73 257 4.0 10.0 0.00 0.00 0.00 71 1013.7
20260902220420 73 352 5.0 13.0 0.00 0.00 0.00 70 1013.8
20260902215919 73 346 7.0 14.0 0.00 0.00 0.00 72 1013.8
20260902214419 73 4 3.0 10.0 0.00 0.00 0.00 70 1013.8
20260902213919 73 263 6.0 9.0 0.00 0.00 0.00 70 1013.7
20260902213418 73 261 2.0 10.0 0.00 0.00 0.00 71 1013.8
20260902212419 73 300 3.0 14.0 0.00 0.00 0.00 71 1013.7
20260902212135 73 341 5.0 15.0 0.00 0.00 0.00 71 1013.8
20260902211418 73 353 8.0 15.0 0.00 0.00 0.00 72 1013.8
20260902210918 73 332 9.0 16.0 0.00 0.00 0.00 72 1013.8
20260902210419 73 298 12.0 16.0 0.00 0.00 0.00 72 1013.9
20260902205918 73 327 8.0 12.0 0.00 0.00 0.00 71 1013.9
20260902205417 73 285 6.0 15.0 0.00 0.00 0.00 72 1014.0
20260902204917 73 0 7.0 15.0 0.00 0.00 0.00 71 1014.0
20260902204419 74 314 9.0 13.0 0.00 0.00 0.00 70 1014.0
20260902203918 74 327 5.0 13.0 0.00 0.00 0.00 72 1013.8
20260902203637 74 332 4.0 13.0 0.00 0.00 0.00 69 1014.0
20260902202917 74 269 4.0 13.0 0.00 0.00 0.00 70 1014.1
20260902202417 73 282 3.0 13.0 0.00 0.00 0.00 68 1014.1
20260902201917 74 274 5.0 12.0 0.00 0.00 0.00 69 1014.1
20260902201417 74 242 4.0 12.0 0.00 0.00 0.00 69 1014.2
20260902200916 74 296 7.0 13.0 0.00 0.00 0.00 71 1014.1
20260902200417 74 351 10.0 15.0 0.00 0.00 0.00 71 1014.2
20260902195916 74 253 3.0 15.0 0.00 0.00 0.00 70 1014.2
20260902195415 74 234 5.0 10.0 0.00 0.00 0.00 70 1014.3
20260902194915 74 275 5.0 10.0 0.00 0.00 0.00 68 1014.3
20260902194417 74 271 3.0 13.0 0.00 0.00 0.00 68 1014.3
20260902193640 74 256 2.0 10.0 0.00 0.00 0.00 69 1014.4
20260902192915 74 11 3.0 9.0 0.00 0.00 0.00 70 1014.4
20260902192416 74 349 7.0 12.0 0.00 0.00 0.00 70 1014.4
20260902191917 73 256 5.0 12.0 0.00 0.00 0.00 71 1014.4
20260902191415 73 347 5.0 10.0 0.00 0.00 0.00 71 1014.5
20260902190915 73 328 7.0 9.0 0.00 0.00 0.00 70 1014.7
20260902190414 73 357 6.0 12.0 0.00 0.00 0.00 71 1014.7
20260902185915 73 335 5.0 12.0 0.00 0.00 0.00 72 1014.7
20260902185414 73 324 8.0 12.0 0.00 0.00 0.00 72 1014.7
20260902184914 73 338 7.0 10.0 0.00 0.00 0.00 72 1014.8
20260902184414 73 301 3.0 14.0 0.00 0.00 0.00 73 1014.9
20260902183915 74 325 7.0 14.0 0.00 0.00 0.00 72 1014.9
20260902183633 74 333 4.0 10.0 0.00 0.00 0.00 73 1014.9
20260902182914 74 322 7.0 13.0 0.00 0.00 0.00 72 1015.0
20260902182413 74 302 4.0 13.0 0.00 0.00 0.00 71 1015.0
20260902181915 74 331 8.0 9.0 0.00 0.00 0.00 71 1015.0
20260902181414 74 342 4.0 9.0 0.00 0.00 0.00 72 1015.0
20260902180913 74 255 6.0 10.0 0.00 0.00 0.00 70 1015.0
20260902180631 74 304 4.0 10.0 0.00 0.00 0.00 71 1014.9
20260902180136 74 323 8.0 9.0 0.00 0.00 0.00 72 1014.9
20260902175414 74 337 4.0 10.0 0.00 0.00 0.00 71 1015.0
20260902174912 74 313 4.0 10.0 0.00 0.00 0.00 71 1014.9
20260902174413 74 326 5.0 9.0 0.00 0.00 0.00 71 1014.9
20260902173914 74 340 5.0 8.0 0.00 0.00 0.00 71 1014.9
20260902173633 74 286 3.0 8.0 0.00 0.00 0.00 70 1014.8
20260902172913 74 270 2.0 8.0 0.00 0.00 0.00 68 1014.9
20260902172413 74 356 5.0 8.0 0.00 0.00 0.00 70 1014.8
20260902171915 74 324 4.0 6.0 0.00 0.00 0.00 70 1014.8
20260902171641 74 269 3.0 6.0 0.00 0.00 0.00 71 1014.8
20260902170912 73 262 4.0 6.0 0.00 0.00 0.00 69 1014.7
20260902170635 73 264 2.0 6.0 0.00 0.00 0.00 69 1014.7
20260902165913 73 263 1.0 5.0 0.00 0.00 0.00 70 1014.7
20260902165413 72 270 2.0 5.0 0.00 0.00 0.00 72 1014.7
20260902164911 72 225 2.0 5.0 0.00 0.00 0.00 73 1014.6
20260902164412 71 241 2.0 3.0 0.00 0.00 0.00 73 1014.7
20260902163913 71 260 3.0 3.0 0.00 0.00 0.00 73 1014.6
20260902163413 71 35 1.0 3.0 0.00 0.00 0.00 76 1014.7
20260902163133 71 25 0.0 2.0 0.00 0.00 0.00 75 1014.8
20260902162411 70 12 1.0 5.0 0.00 0.00 0.00 76 1014.7
20260902161911 70 41 1.0 5.0 0.00 0.00 0.00 77 1014.8
20260902161413 70 289 0.0 2.0 0.00 0.00 0.00 77 1014.8
20260902160912 70 62 0.0 3.0 0.00 0.00 0.00 77 1014.8
20260902160411 69 270 1.0 3.0 0.00 0.00 0.00 77 1014.8
20260902155910 69 304 3.0 3.0 0.00 0.00 0.00 79 1014.8
20260902155634 69 352 1.0 3.0 0.00 0.00 0.00 79 1014.8
20260902154912 69 336 1.0 3.0 0.00 0.00 0.00 79 1014.8
20260902154410 68 350 0.0 2.0 0.00 0.00 0.00 78 1014.8
20260902154134 68 233 2.0 2.0 0.00 0.00 0.00 79 1014.7
20260902153411 68 256 0.0 2.0 0.00 0.00 0.00 81 1014.7
20260902152911 68 251 0.0 3.0 0.00 0.00 0.00 83 1014.7
20260902152409 68 352 0.0 5.0 0.00 0.00 0.00 84 1014.6
20260902151411 67 275 0.0 5.0 0.00 0.00 0.00 84 1014.7
20260902150911 67 295 2.0 2.0 0.00 0.00 0.00 83 1014.7
20260902150410 67 322 1.0 2.0 0.00 0.00 0.00 84 1014.7
20260902145909 66 267 0.0 2.0 0.00 0.00 0.00 85 1014.7
20260902145410 66 301 1.0 2.0 0.00 0.00 0.00 85 1014.7
20260902144910 65 261 0.0 2.0 0.00 0.00 0.00 86 1014.7
20260902144409 65 261 0.0 2.0 0.00 0.00 0.00 86 1014.6
20260902143629 65 9 1.0 5.0 0.00 0.00 0.00 88 1014.6
20260902142910 65 24 2.0 3.0 0.00 0.00 0.00 88 1014.7
20260902142409 65 296 0.0 0.0 0.00 0.00 0.00 88 1014.8
20260902142132 65 298 0.0 0.0 0.00 0.00 0.00 88 1014.7
20260902141410 64 263 0.0 0.0 0.00 0.00 0.00 87 1014.6
20260902140909 64 186 0.0 0.0 0.00 0.00 0.00 88 1014.6
20260902140408 64 245 0.0 1.0 0.00 0.00 0.00 89 1014.5
20260902135908 64 230 0.0 2.0 0.00 0.00 0.00 91 1014.5
20260902135409 64 223 0.0 3.0 0.00 0.00 0.00 91 1014.4
20260902134909 64 260 0.0 5.0 0.00 0.00 0.00 91 1014.4
20260902134408 64 341 3.0 5.0 0.00 0.00 0.00 91 1014.3
20260902133907 64 271 1.0 6.0 0.00 0.00 0.00 91 1014.2
20260902133407 64 294 2.0 6.0 0.00 0.00 0.00 90 1014.2
20260902132909 64 305 0.0 3.0 0.00 0.00 0.00 90 1014.1
20260902132626 64 15 2.0 3.0 0.00 0.00 0.00 90 1014.2
20260902131907 64 7 2.0 5.0 0.00 0.00 0.00 90 1014.1
20260902131635 64 4 1.0 5.0 0.00 0.00 0.00 91 1014.0
20260902130908 64 232 0.0 3.0 0.00 0.00 0.00 91 1014.0
20260902125907 64 338 3.0 3.0 0.00 0.00 0.00 91 1013.9
20260902125407 64 260 0.0 3.0 0.00 0.00 0.00 91 1013.8
20260902124908 64 307 2.0 3.0 0.00 0.00 0.00 91 1013.9
20260902124625 64 289 0.0 1.0 0.00 0.00 0.00 91 1013.8
20260902123906 64 262 0.0 5.0 0.00 0.00 0.00 91 1013.8
20260902123406 64 271 0.0 5.0 0.00 0.00 0.00 91 1013.8
20260902122907 64 349 0.0 5.0 0.00 0.00 0.00 91 1013.7
20260902122407 64 355 1.0 5.0 0.00 0.00 0.00 91 1013.6
20260902122126 64 297 0.0 3.0 0.00 0.00 0.00 91 1013.7
20260902121405 64 274 0.0 3.0 0.00 0.00 0.00 91 1013.7
20260902120907 64 303 1.0 5.0 0.00 0.00 0.00 91 1013.8
20260902120407 64 16 0.0 5.0 0.00 0.00 0.00 91 1013.8
20260902115906 64 325 3.0 3.0 0.00 0.00 0.00 91 1013.7
20260902115405 64 272 0.0 0.0 0.00 0.00 0.00 91 1013.7
20260902114906 64 305 0.0 0.0 0.00 0.00 0.00 91 1013.9
20260902114406 64 294 0.0 1.0 0.00 0.00 0.00 91 1013.9
20260902113905 64 321 0.0 1.0 0.00 0.00 0.00 91 1013.9
20260902113405 64 284 0.0 0.0 0.00 0.00 0.00 91 1013.8
20260902112906 64 252 0.0 0.0 0.00 0.00 0.00 91 1013.9
20260902112405 64 253 0.0 0.0 0.00 0.00 0.00 90 1013.8
20260902111905 64 239 0.0 0.0 0.00 0.00 0.00 91 1013.8
20260902111405 64 225 0.0 1.0 0.00 0.00 0.00 91 1013.9
20260902110406 64 254 0.0 2.0 0.00 0.00 0.00 90 1013.8
20260902110125 65 265 0.0 2.0 0.00 0.00 0.00 90 1013.8
20260902105404 65 282 0.0 3.0 0.00 0.00 0.00 90 1013.8
20260902104904 65 273 0.0 3.0 0.00 0.00 0.00 90 1013.9
20260902104405 65 301 1.0 3.0 0.00 0.00 0.00 90 1013.9
20260902103903 65 0 1.0 3.0 0.00 0.00 0.00 90 1014.0
20260902103404 65 264 0.0 0.0 0.00 0.00 0.00 89 1013.9
20260902102904 65 233 0.0 0.0 0.00 0.00 0.00 90 1014.0
20260902102405 65 218 0.0 0.0 0.00 0.00 0.00 90 1014.1
20260902101904 65 264 0.0 0.0 0.00 0.00 0.00 90 1014.1
20260902101404 65 249 0.0 0.0 0.00 0.00 0.00 90 1014.2
20260902101127 66 259 0.0 0.0 0.00 0.00 0.00 90 1014.2
20260902100401 65 260 0.0 0.0 0.00 0.00 0.00 89 1014.2
20260902100101 65 255 0.0 2.0 0.00 0.00 0.00 90 1014.2
20260902095601 66 268 0.0 2.0 0.00 0.00 0.00 89 1014.2
20260902095327 66 303 0.0 1.0 0.00 0.00 0.00 89 1014.3
20260902094602 66 260 0.0 2.0 0.00 0.00 0.00 89 1014.3
20260902094101 66 281 1.0 2.0 0.00 0.00 0.00 88 1014.3
20260902093601 66 288 0.0 0.0 0.00 0.00 0.00 88 1014.2
20260902093059 66 288 0.0 1.0 0.00 0.00 0.00 88 1014.2
20260902092601 66 273 0.0 2.0 0.00 0.00 0.00 88 1014.3
20260902092328 66 286 1.0 2.0 0.00 0.00 0.00 87 1014.3
20260902091600 66 327 0.0 0.0 0.00 0.00 0.00 87 1014.3
20260902091100 66 282 0.0 0.0 0.00 0.00 0.00 87 1014.4
20260902090601 66 296 0.0 0.0 0.00 0.00 0.00 88 1014.3
20260902090100 66 283 0.0 0.0 0.00 0.00 0.00 88 1014.5
20260902085559 66 283 0.0 0.0 0.00 0.00 0.00 89 1014.5
20260902085059 66 263 0.0 0.0 0.00 0.00 0.00 88 1014.6
20260902084600 66 264 0.0 0.0 0.00 0.00 0.00 88 1014.6
20260902084100 66 267 0.0 0.0 0.00 0.00 0.00 89 1014.6
20260902083559 66 258 0.0 0.0 0.00 0.00 0.00 88 1014.6
20260902083059 66 241 0.0 0.0 0.00 0.00 0.00 88 1014.7
20260902082100 66 258 0.0 0.0 0.00 0.00 0.00 88 1014.7
20260902081558 66 256 0.0 0.0 0.00 0.00 0.00 88 1014.7
20260902081316 66 258 0.0 0.0 0.00 0.00 0.00 88 1014.6
20260902080600 66 270 0.0 0.0 0.00 0.00 0.00 88 1014.6
20260902080059 66 272 0.0 0.0 0.00 0.00 0.00 88 1014.6
20260902075557 66 250 0.0 0.0 0.00 0.00 0.00 88 1014.6
20260902075058 66 250 0.0 0.0 0.00 0.00 0.00 89 1014.5
20260902074559 66 250 0.0 0.0 0.00 0.00 0.00 88 1014.6
20260902074059 67 263 0.0 0.0 0.00 0.00 0.00 87 1014.6
20260902073819 67 263 0.0 0.0 0.00 0.00 0.00 87 1014.6
20260902073058 67 263 0.0 0.0 0.00 0.00 0.00 87 1014.5
20260902072559 67 259 0.0 1.0 0.00 0.00 0.00 87 1014.5
20260902072059 67 260 0.0 1.0 0.00 0.00 0.00 86 1014.4
20260902071553 67 267 0.0 2.0 0.00 0.00 0.00 86 1014.5
20260902071057 67 274 1.0 3.0 0.00 0.00 0.00 85 1014.3
20260902070559 67 285 2.0 3.0 0.00 0.00 0.00 85 1014.2
20260902070059 67 270 1.0 2.0 0.00 0.00 0.00 86 1014.3
20260902065558 67 265 0.0 2.0 0.00 0.00 0.00 86 1014.3
20260902065057 67 284 2.0 2.0 0.00 0.00 0.00 86 1014.2
20260902064559 67 269 2.0 2.0 0.00 0.00 0.00 85 1014.2
20260902064057 67 251 1.0 3.0 0.00 0.00 0.00 85 1014.2
20260902063823 67 255 1.0 3.0 0.00 0.00 0.00 85 1014.3
20260902063057 67 250 0.0 2.0 0.00 0.00 0.00 86 1014.3
20260902062556 67 250 0.0 3.0 0.00 0.00 0.00 85 1014.3
20260902062058 67 254 2.0 3.0 0.00 0.00 0.00 85 1014.3
20260902061557 67 252 0.0 3.0 0.00 0.00 0.00 86 1014.2
20260902061056 67 255 1.0 3.0 0.00 0.00 0.00 85 1014.1
20260902060557 67 265 1.0 3.0 0.00 0.00 0.00 85 1014.1